Content
SEND FEEDBACK

Daily
Averages
Monthly
Summary
United States of America

YELLOWSTONE NATIONAL PARK, WYOMING


Home > North America > United States > Wyoming
Elevation: 7938 feet     Latitude: 44 34N     Longitude: 110 24W

WEATHER
 
SELECT A DAY
Number of Records: 295,393;   Date Range: 1/1/95 - 8/12/14
 
SHARE

PRINT THIS DATA

[ ← Previous Day ]
WEATHER ALMANAC - FEBRUARY 16, 2013
[ Next Day → ]
[ °C ]   °F
Weather ElementAverageHighLow
Temperature21.9 °F28 °F (2:56 pm)14 °F (10:56 pm)
Dewpoint16.5 °F19 °F (10:56 am)10.9 °F (10:56 pm)
Humidity80 %88 % (3:56 am)66 % (2:56 pm)
Barometer30.29 in30.47 in (7:56 am)30.03 in (11:56 pm)
Wind Speed1.4 mph5.8 mph (12:56 pm)
Weather ElementAverage
Wind DirectionNNE (9.6 °)

Weather ElementTotal
Precipitation---
Heating Degree Days44 (Base 65)
Averaged from 23 records on February 16, 2013
WEATHER CONDITIONS BREAKOUT
WIND DIRECTION BREAKOUT
WEATHER BY HOUR - FEBRUARY 16, 2013
[ °C ]   °F
Local TimeTemperatureDewpointHumidityBarometerVisibilityWind DirectionWind SpeedGust SpeedPrecipitationEventsConditions
1:56 AM18.0 °F12.9 °F81 %30.44 inCalm
2:56 AM19.0 °F15.1 °F85 %30.43 inCalm
3:56 AM21.0 °F18.0 °F88 %30.41 inCalm
4:56 AM21.0 °F18.0 °F88 %30.40 inCalm
5:56 AM21.0 °F18.0 °F88 %30.41 inCalm
6:56 AM21.0 °F17.1 °F85 %30.43 inCalm
7:56 AM21.0 °F18.0 °F88 %30.47 inCalm
8:56 AM21.9 °F18.0 °F85 %30.44 inSW (220°)3.5 mph
9:56 AM23.0 °F18.0 °F81 %30.41 inCalm
10:56 AM24.1 °F19.0 °F81 %30.39 inVariable3.5 mph
11:56 AM24.1 °F19.0 °F81 %30.36 inCalm
12:56 PM26.1 °F18.0 °F71 %30.32 inVariable5.8 mph
1:56 PM27.0 °F18.0 °F69 %30.28 inVariable3.5 mph
2:56 PM28.0 °F18.0 °F66 %30.25 inVariable4.6 mph
3:56 PM27.0 °F18.0 °F69 %30.22 inVariable5.8 mph
4:56 PM26.1 °F17.1 °F69 %30.20 inVariable5.8 mph
5:56 PM23.0 °F16.0 °F74 %30.19 inCalm
6:56 PM25.0 °F17.1 °F72 %30.16 inCalm
7:56 PM23.0 °F17.1 °F78 %30.13 inCalm
8:56 PM18.0 °F14.0 °F84 %30.12 inCalm
9:56 PM17.1 °F12.9 °F84 %30.09 inCalm
10:56 PM14.0 °F10.9 °F88 %30.07 inCalm
11:56 PM15.1 °F10.9 °F84 %30.03 inCalm
Hourly data recorded from KP60, located miles away from Yellowstone National Park, Wyoming







STORIES FROM OUR PARTNERS